When you browse on this site, cookies collect data to enhance your experience and personalize the content and advertising you see.
Visit our Privacy Policy to learn more. By continuing to use the site, you agree to this use of cookies and data.
  • In Latvia
  • List of Countries
  • For 7 days
  • Water Temperature
  • Weather Map
  • Weather Widgets
  • user-avatar
    Login

    Hourly Weather Dromore

    Today, 20 September, Friday

    Time Temperature Precipitation Wind Pressure Humidity
    00:00 +10°C° 0 mm 2 mps 761 mmHg 89%
    01:00 +10°C° 0 mm 2 mps 760 mmHg 90%
    02:00 +10°C° 0 mm 2 mps 760 mmHg 91%
    03:00 +10°C° 0 mm 2 mps 759 mmHg 92%
    04:00 +10°C° 0 mm 2 mps 759 mmHg 92%
    05:00 +10°C° 0 mm 2 mps 758 mmHg 93%
    06:00 +10°C° 0 mm 2 mps 758 mmHg 93%
    07:00 +12°C° 0 mm 2 mps 758 mmHg 90%
    08:00 +13°C° 0 mm 3 mps 758 mmHg 87%
    09:00 +16°C° 0 mm 3 mps 758 mmHg 84%
    10:00 +15°C° 0 mm 4 mps 757 mmHg 81%
    11:00 +17°C° 0 mm 4 mps 757 mmHg 77%
    12:00 +17°C° 0 mm 5 mps 756 mmHg 74%
    13:00 +17°C° 0 mm 5 mps 756 mmHg 75%
    14:00 +16°C° 0 mm 5 mps 755 mmHg 75%
    15:00 +16°C° 0 mm 5 mps 754 mmHg 76%
    16:00 +15°C° 0 mm 4 mps 754 mmHg 80%
    17:00 +14°C° 0 mm 4 mps 753 mmHg 84%
    18:00 +13°C° 0 mm 3 mps 753 mmHg 88%
    19:00 +13°C° 0 mm 4 mps 752 mmHg 89%
    20:00 +13°C° 0 mm 4 mps 752 mmHg 89%
    21:00 +13°C° 0 mm 5 mps 751 mmHg 89%
    22:00 +13°C° 0 mm 5 mps 751 mmHg 87%
    23:00 +13°C° 0 mm 6 mps 751 mmHg 84%

    Tomorrow, 21 September, Saturday

    Time Temperature Precipitation Wind Pressure Humidity
    00:00 +13°C° 0 mm 6 mps 750 mmHg 81%
    01:00 +13°C° 0 mm 6 mps 749 mmHg 80%
    02:00 +11°C° 0 mm 6 mps 749 mmHg 80%
    03:00 +11°C° 0 mm 6 mps 748 mmHg 80%
    04:00 +11°C° 0 mm 6 mps 748 mmHg 80%
    05:00 +11°C° 0 mm 6 mps 747 mmHg 81%
    06:00 +11°C° 0 mm 7 mps 747 mmHg 81%
    07:00 +12°C° 0 mm 7 mps 746 mmHg 78%
    08:00 +12°C° 0 mm 7 mps 746 mmHg 76%
    09:00 +13°C° 0 mm 8 mps 746 mmHg 74%
    10:00 +15°C° 0 mm 8 mps 745 mmHg 72%
    11:00 +16°C° 0 mm 7 mps 745 mmHg 70%
    12:00 +16°C° 0 mm 7 mps 744 mmHg 69%
    13:00 +16°C° 0.1 mm 7 mps 744 mmHg 71%
    14:00 +16°C° 0.1 mm 7 mps 744 mmHg 73%
    15:00 +17°C° 0.1 mm 6 mps 743 mmHg 75%
    16:00 +16°C° 0.1 mm 6 mps 743 mmHg 79%
    17:00 +15°C° 0.1 mm 5 mps 743 mmHg 82%
    18:00 +15°C° 0.1 mm 4 mps 743 mmHg 86%
    19:00 +15°C° 0 mm 4 mps 743 mmHg 86%
    20:00 +15°C° 0 mm 5 mps 743 mmHg 86%
    21:00 +15°C° 0 mm 5 mps 743 mmHg 87%
    22:00 +15°C° 0 mm 4 mps 742 mmHg 89%
    23:00 +15°C° 0 mm 4 mps 742 mmHg 91%

    Day after tomorrow, 22 September, Sunday

    Time Temperature Precipitation Wind Pressure Humidity
    00:00 +15°C° 0 mm 4 mps 742 mmHg 93%
    01:00 +15°C° 0 mm 4 mps 741 mmHg 93%
    02:00 +15°C° 0 mm 4 mps 741 mmHg 92%
    03:00 +14°C° 0 mm 4 mps 741 mmHg 92%
    04:00 +14°C° 0 mm 4 mps 740 mmHg 92%
    05:00 +14°C° 0 mm 4 mps 740 mmHg 92%
    06:00 +14°C° 0 mm 4 mps 740 mmHg 92%
    07:00 +14°C° 0.1 mm 4 mps 739 mmHg 93%
    08:00 +14°C° 0.1 mm 5 mps 739 mmHg 93%
    09:00 +15°C° 0.1 mm 5 mps 739 mmHg 93%
    10:00 +15°C° 0.2 mm 5 mps 739 mmHg 94%
    11:00 +15°C° 0.2 mm 4 mps 739 mmHg 94%
    12:00 +16°C° 0.2 mm 3 mps 739 mmHg 94%
    13:00 +16°C° 0.4 mm 3 mps 739 mmHg 93%
    14:00 +16°C° 0.4 mm 2 mps 739 mmHg 92%
    15:00 +16°C° 0.4 mm 2 mps 739 mmHg 91%
    16:00 +16°C° 0.1 mm 2 mps 739 mmHg 93%
    17:00 +14°C° 0.1 mm 3 mps 739 mmHg 94%
    18:00 +14°C° 0.1 mm 3 mps 739 mmHg 95%
    19:00 +13°C° 0 mm 3 mps 740 mmHg 96%
    20:00 +13°C° 0 mm 3 mps 740 mmHg 96%
    21:00 +13°C° 0 mm 3 mps 741 mmHg 97%
    22:00 +12°C° 0 mm 3 mps 741 mmHg 97%
    23:00 +13°C° 0 mm 2 mps 741 mmHg 97%

    23 September, Monday

    Time Temperature Precipitation Wind Pressure Humidity
    00:00 +12°C° 0 mm 2 mps 741 mmHg 97%
    01:00 +12°C° 0 mm 2 mps 741 mmHg 96%
    02:00 +11°C° 0 mm 3 mps 741 mmHg 96%
    03:00 +11°C° 0 mm 3 mps 741 mmHg 96%
    04:00 +11°C° 0 mm 3 mps 742 mmHg 95%
    05:00 +11°C° 0 mm 3 mps 742 mmHg 95%
    06:00 +11°C° 0 mm 3 mps 742 mmHg 95%
    07:00 +11°C° 0 mm 3 mps 742 mmHg 92%
    08:00 +12°C° 0 mm 3 mps 742 mmHg 89%
    09:00 +12°C° 0 mm 4 mps 743 mmHg 86%
    10:00 +13°C° 0 mm 4 mps 742 mmHg 82%
    11:00 +14°C° 0 mm 5 mps 742 mmHg 78%
    12:00 +15°C° 0 mm 6 mps 742 mmHg 75%
    13:00 +14°C° 0.3 mm 6 mps 741 mmHg 80%
    14:00 +14°C° 0.3 mm 7 mps 740 mmHg 85%
    15:00 +12°C° 0.3 mm 7 mps 740 mmHg 91%
    16:00 +12°C° 1.1 mm 8 mps 739 mmHg 92%
    17:00 +12°C° 1.1 mm 8 mps 739 mmHg 94%
    18:00 +12°C° 1.1 mm 8 mps 738 mmHg 95%
    19:00 +12°C° 0.3 mm 7 mps 738 mmHg 96%
    20:00 +13°C° 0.3 mm 5 mps 738 mmHg 97%
    21:00 +14°C° 0.3 mm 4 mps 738 mmHg 98%
    22:00 +14°C° 0 mm 4 mps 738 mmHg 97%
    23:00 +14°C° 0 mm 3 mps 738 mmHg 97%

    24 September, Tuesday

    Time Temperature Precipitation Wind Pressure Humidity
    00:00 +14°C° 0 mm 2 mps 738 mmHg 97%
    01:00 +13°C° 0 mm 3 mps 738 mmHg 97%
    02:00 +13°C° 0 mm 3 mps 737 mmHg 97%
    03:00 +12°C° 0 mm 3 mps 737 mmHg 97%
    04:00 +13°C° 0.2 mm 3 mps 737 mmHg 97%
    05:00 +13°C° 0.2 mm 3 mps 737 mmHg 98%
    06:00 +13°C° 0.2 mm 3 mps 736 mmHg 98%
    07:00 +14°C° 0.1 mm 3 mps 737 mmHg 96%
    08:00 +14°C° 0.1 mm 3 mps 737 mmHg 95%
    09:00 +15°C° 0.1 mm 4 mps 737 mmHg 93%
    10:00 +16°C° 0.2 mm 3 mps 736 mmHg 90%
    11:00 +17°C° 0.2 mm 3 mps 736 mmHg 88%
    12:00 +17°C° 0.2 mm 3 mps 736 mmHg 85%
    13:00 +17°C° 0.1 mm 3 mps 736 mmHg 85%
    14:00 +17°C° 0.1 mm 3 mps 735 mmHg 84%
    15:00 +16°C° 0.1 mm 3 mps 735 mmHg 84%
    16:00 +16°C° 0 mm 2 mps 734 mmHg 87%
    17:00 +15°C° 0 mm 2 mps 734 mmHg 90%
    18:00 +14°C° 0 mm 1 mps 734 mmHg 94%
    19:00 +14°C° 0 mm 1 mps 734 mmHg 94%
    20:00 +13°C° 0 mm 1 mps 734 mmHg 95%
    21:00 +13°C° 0 mm 1 mps 734 mmHg 95%
    22:00 +13°C° 0 mm 1 mps 734 mmHg 95%
    23:00 +13°C° 0 mm 2 mps 734 mmHg 95%

    25 September, Wednesday

    Time Temperature Precipitation Wind Pressure Humidity
    00:00 +13°C° 0 mm 2 mps 735 mmHg 96%
    01:00 +13°C° 0.1 mm 2 mps 735 mmHg 96%
    02:00 +12°C° 0.1 mm 3 mps 735 mmHg 96%
    03:00 +12°C° 0.1 mm 3 mps 735 mmHg 96%
    04:00 +12°C° 0.1 mm 3 mps 735 mmHg 96%
    05:00 +12°C° 0.1 mm 4 mps 736 mmHg 95%
    06:00 +12°C° 0.1 mm 4 mps 736 mmHg 95%
    07:00 +12°C° 0 mm 4 mps 736 mmHg 93%
    08:00 +13°C° 0 mm 4 mps 737 mmHg 92%
    09:00 +13°C° 0 mm 4 mps 737 mmHg 90%
    10:00 +14°C° 0 mm 4 mps 737 mmHg 87%
    11:00 +16°C° 0 mm 3 mps 737 mmHg 84%
    12:00 +17°C° 0 mm 3 mps 738 mmHg 81%
    13:00 +17°C° 0 mm 4 mps 737 mmHg 79%
    14:00 +17°C° 0 mm 4 mps 737 mmHg 78%
    15:00 +17°C° 0 mm 4 mps 737 mmHg 77%
    16:00 +15°C° 0 mm 4 mps 736 mmHg 81%
    17:00 +14°C° 0 mm 4 mps 736 mmHg 85%
    18:00 +13°C° 0 mm 4 mps 735 mmHg 89%
    19:00 +13°C° 0.7 mm 4 mps 735 mmHg 92%
    20:00 +13°C° 0.7 mm 4 mps 734 mmHg 95%
    21:00 +13°C° 0.7 mm 4 mps 734 mmHg 97%
    22:00 +13°C° 2.8 mm 4 mps 733 mmHg 97%
    23:00 +14°C° 2.8 mm 5 mps 732 mmHg 97%
    Show more